#timestamp,LO_Frequency,Hit,StdDev 
1676296815.9,286047000.6,N
1676296835.7,286047000.5,N
1676296855.6,286047002.1,N
1676296875.4,286047004.4,N
1676296895.2,286047007.2,Y
1676296915.1,286047004.9,P
1676296916.0,286047004.9,N
1676296935.8,286047005.0,N
1676296955.7,286047004.0,N
1676296975.5,286047003.8,N
1676296995.3,286047005.3,Y
1676297015.2,286047001.6,P
1676297035.0,286047000.0,N
1676297035.9,286047000.0,N
1676297055.8,286047000.9,N
1676297075.6,286047000.0,N
1676297095.4,286047000.7,N
1676297115.3,286046998.3,N
1676297135.1,286047002.7,N
1676297155.9,286047000.1,N
1676297175.7,286047001.7,N
1676297195.5,286047001.6,N
1676297215.4,286047000.6,N
1676297235.2,286047000.3,N
1676297255.0,286047001.3,N
1676297256.0,286047001.3,N
1676297275.8,286047002.3,N
1676297295.6,286047002.1,N
1676297315.5,286047002.5,N
1676297335.3,286047001.6,N
1676297355.1,286046998.9,N
1676297375.9,286046999.2,N
1676297395.7,286046996.4,N
1676297415.6,286046994.1,Y
1676297435.4,286046993.5,P
1676297455.2,286046996.1,N
1676297475.1,286046995.5,N
1676297476.0,286046995.5,N
1676297495.8,286046996.0,N
1676297515.7,286046995.3,N
1676297535.5,286046997.7,N
1676297555.4,286046998.8,N
1676297575.2,286047000.4,N
1676297595.0,286046998.2,N
1676297595.9,286046998.2,N
1676297615.8,286046998.4,N
1676297635.6,286047002.8,N
1676297655.5,286046999.7,N
1676297675.3,286047001.9,N
1676297695.1,286046999.9,N
1676297715.9,286047000.0,N
1676297735.7,286046998.1,N
1676297755.6,286047000.5,N
1676297775.4,286047000.7,N
1676297795.2,286046998.2,N
1676297815.1,286047002.8,N
1676297816.0,286047002.8,N
1676297835.8,286047002.5,N
1676297855.7,286046999.7,N
1676297875.5,286047004.1,N
1676297895.3,286047003.2,N
1676297915.2,286047001.6,N
1676297935.0,286047001.9,N
1676297935.9,286047001.9,N
1676297955.7,286047002.6,N
1676297975.6,286047000.2,N
1676297995.4,286046998.2,N
1676298015.3,286046998.9,N
1676298035.1,286046998.3,N
1676298055.8,286046999.9,N
1676298075.7,286047000.6,N
1676298095.5,286047000.1,N
1676298115.4,286047000.3,N
1676298135.2,286047000.1,N
1676298155.0,286047000.2,N
1676298155.9,286047000.2,N
1676298175.8,286046998.2,N
1676298195.6,286046998.8,N
1676298215.5,286047000.8,N
1676298235.3,286046999.1,N
1676298255.1,286046998.0,N
1676298275.9,286046999.1,N
1676298295.7,286046997.2,N
1676298315.6,286046998.4,N
1676298335.4,286047000.4,N
1676298355.2,286046998.0,N
1676298375.1,286046995.0,N
1676298376.0,286046995.0,N
1676298395.8,286046998.0,N
1676298415.7,286046997.5,N
1676298435.5,286046997.5,N
1676298455.4,286046998.6,N
1676298475.2,286047001.1,N
1676298495.0,286046996.6,N
1676298495.9,286046996.6,N
1676298515.8,286046999.5,N
1676298535.6,286046998.7,N
1676298555.4,286046998.2,N
1676298575.3,286047002.6,N
1676298595.1,286047001.9,N
1676298615.9,286046999.8,N
1676298635.7,286047000.8,N
1676298655.5,286047000.7,N
1676298675.4,286047000.4,N
1676298695.2,286046999.7,N
1676298715.0,286047000.2,N
1676298716.0,286047000.2,N
1676298735.8,286047000.4,N
1676298755.6,286046999.3,N
1676298775.5,286046999.4,N
1676298795.3,286046999.5,N
1676298815.2,286046998.7,N
1676298835.9,286046999.2,N
1676298855.7,286046996.9,N
1676298875.6,286046999.3,N
1676298895.4,286046997.7,N
1676298915.2,286046997.0,N
1676298935.1,286047001.1,N
1676298936.0,286047001.1,N
1676298955.8,286046998.3,N
1676298975.7,286046997.2,N
1676298995.5,286046997.4,N
1676299015.3,286046997.2,N
1676299035.2,286046996.7,N
1676299055.0,286046999.3,N
1676299055.9,286046999.3,N
1676299075.7,286046999.8,N
1676299095.6,286046998.9,N
1676299115.4,286047000.4,N
1676299135.3,286047000.0,N
1676299155.1,286046998.1,N
1676299156.0,286046998.1,N
1676299175.8,286046999.1,N
1676299195.7,286047000.7,N
1676299215.5,286047000.1,N
1676299235.4,286047002.6,N
1676299255.2,286047001.8,N
1676299275.0,286047002.4,N
1676299275.9,286047002.4,N
1676299295.8,286046998.1,N
1676299315.6,286046998.4,N
1676299335.5,286046999.0,N
1676299355.3,286047000.3,N
1676299375.1,286047000.2,N
1676299395.9,286047001.1,N
1676299415.7,286046997.1,N
1676299435.5,286046996.8,N
1676299455.4,286046996.7,N
1676299475.2,286046997.0,N
1676299495.1,286046998.3,N
1676299496.0,286046998.3,N
1676299515.8,286046999.2,N
1676299535.6,286046998.6,N
1676299555.5,286046999.0,N
1676299575.3,286046999.3,N
1676299595.2,286046998.1,N
1676299615.9,286046997.2,N
1676299635.7,286046997.3,N
1676299655.6,286046997.0,N
1676299675.4,286046999.3,N
1676299695.2,286047000.4,N
1676299715.1,286047000.3,N
1676299716.0,286047000.3,N
1676299735.8,286046997.5,N
1676299755.7,286046996.4,N
1676299775.5,286046992.4,Y
1676299795.3,286046994.1,P
1676299815.2,286046995.9,N
1676299835.0,286046995.6,N
1676299835.9,286046995.6,N
1676299855.8,286046997.4,N
1676299875.6,286046997.2,N
1676299895.4,286046995.3,Y
1676299915.3,286047000.5,P
1676299935.1,286047002.3,N
1676299955.8,286047003.1,N
1676299975.7,286047005.8,N
1676299995.5,286047007.4,N
1676300015.4,286047005.4,N
1676300035.2,286047005.5,N
1676300055.0,286047004.9,N
1676300055.9,286047004.9,N
1676300075.8,286047004.7,N
1676300095.6,286047003.3,N
1676300115.5,286047004.0,N
1676300135.3,286047003.8,N
1676300155.1,286047004.1,N
1676300175.9,286047001.7,N
1676300195.7,286047003.2,N
1676300215.5,286047002.2,N
1676300235.4,286047003.9,N
1676300255.2,286047004.0,N
1676300275.0,286047003.9,N
1676300276.0,286047003.9,N
1676300295.8,286047003.3,N
1676300315.6,286047003.3,N
1676300335.5,286047003.2,N
1676300355.3,286047001.7,N
1676300375.1,286047002.0,N
1676300395.9,286047002.8,N
